Zurück zum Katalog

THORAD AGENA D DEB

AktivLEO
NORAD 4993·DEBRIS·🇺🇸 United States

Gestartet Apr 8, 1970 von Vandenberg Space Force Base

Loading…

Nächste Überflüge (nächste 24 Stunden)

TLE

AktuellSource: Space-Track

Epoche: Sep 13, 2026, 09:55 UTC

1 04993U 70025HP  26256.41328923  .00000376  00000-0  27255-3 0  9992
2 04993 100.2120  55.3056 0083292 117.9350 243.0275 14.02136048851092

Verfolge THORAD AGENA D DEB in Echtzeit mit AllMySat

Download on the App Store